Flag for China Weather past 2 weeks in Guilin, Guangxi, China

Now
68 °F

Sunny.


Feels Like: 68 °F
Forecast: 61 / 85 °F
Wind: 1 mph from North

Location: Guilin Airport

Current Time: Sep 22, 2014 at 8:37:23 AM

Latest Report: Sep 22, 2014 at 8:00 AM


Visibility: 10 mi

Pressure: 29.89 "Hg

Humidity: 78%

Dew point: 61 °F

Location of GuilinLocation

Historic Weather in Guilin — Graph

°F

Guilin temperature yesterday

Maximum temperature yesterday: 86 °F (at 2:00 PM)
Minimum temperature yesterday: 64 °F (at 5:00 AM)
Average temperature yesterday: 75 °F

Past Weeks' High & Low Weather Summary

 TemperatureHumidityPressure
High97 °F (Sep 8, 3:00 PM)100% (Sep 7, 7:00 AM)29.95 "Hg (Sep 7, 7:00 AM)
Low63 °F (Sep 22, 5:00 AM)40% (Sep 21, 5:00 PM)29.62 "Hg (Sep 8, 4:00 PM)
Average80 °F78%29.78 "Hg
* Reported Sep 7 7:00 AM — Sep 22 7:00 AM, Guilin, Weather by CustomWeather, © 2014

Note: Actual official high and low records may vary slightly from our data, if they occured in-between our weather recording intervals... More about our weather records

Advertising

Guilin weather history for previous 24 hours

 ConditionsComfort  
Time TempWeatherWind HumidityBarometerVisibility
7:00 AM
Sep 22
64 °FPassing clouds.1 mph88%29.89 "HgN/A
6:00 AM63 °FClear.3 mph88%29.86 "Hg4 mi
5:00 AM63 °FClear.3 mph88%29.86 "Hg4 mi
4:00 AM64 °FClear.3 mph88%29.86 "Hg4 mi
3:00 AM64 °FClear.3 mph88%29.86 "Hg4 mi
2:00 AM66 °FClear.1 mph83%29.89 "Hg4 mi
1:00 AM66 °FClear.3 mph88%29.89 "Hg4 mi
12:00 AM68 °FClear.3 mph88%29.89 "Hg4 mi
11:00 PM
Sep 21
68 °FClear.3 mph88%29.89 "Hg4 mi
10:00 PM72 °FClear.3 mph73%29.86 "Hg10 mi
9:00 PM75 °FPassing clouds.3 mph61%29.86 "HgN/A
8:00 PM75 °FPassing clouds.6 mph65%29.83 "HgN/A
7:00 PM81 °FPassing clouds.6 mph48%29.80 "HgN/A
6:00 PM82 °FScattered clouds.8 mph45%29.77 "HgN/A
5:00 PM86 °FPassing clouds.8 mph40%29.77 "HgN/A
4:00 PM86 °FPassing clouds.10 mph43%29.77 "HgN/A
3:00 PM86 °FPassing clouds.10 mph43%29.77 "HgN/A
2:00 PM86 °FPassing clouds.6 mph43%29.80 "HgN/A
1:00 PM84 °FPassing clouds.10 mph43%29.83 "HgN/A
12:00 PM82 °FPassing clouds.10 mph45%29.86 "HgN/A
11:00 AM81 °FScattered clouds.8 mph51%29.86 "HgN/A
10:00 AM77 °FPassing clouds.6 mph61%29.89 "HgN/A
9:00 AM70 °FPassing clouds.3 mph78%29.89 "HgN/A
8:00 AM68 °FSunny.3 mph88%29.89 "Hg10 mi
Weather by CustomWeather, © 2014

See weather overviewHow to use our weather pages